Regional Weather Roundup
Issued by NWS Charleston, WV

Home | Current Version | Previous Version | Graphics & Text | Print | Product List | Glossary On
Versions: 1 2 3 4 5 6 7 8 9 10 11 12 13 14 15 16 17 18 19 20 21 22 23 24 25 26 27 28 29 30 31 32 33 34 35 36 37 38 39 40 41 42 43 44 45 46 47 48 49 50
000
ASUS41 KRLX 250810
RWRRLX
West Virginia Regional Weather Roundup
National Weather Service Charleston WV
400 AM EDT FRI JUL 25 2014

Note: "fair" indicates few or no clouds below 12,000 feet with no
significant weather and/or obstructions to visibility.

WVZ003-250900-
Northern Panhandle of West Virginia

CITY           SKY/WX    TMP DP  RH WIND       PRES   REMARKS
WHEELING       CLEAR     56  50  80 CALM      30.08S
$$

WVZ009-250900-
Northwest West Virginia

CITY           SKY/WX    TMP DP  RH WIND       PRES   REMARKS
PARKERSBURG      N/A     57  55  93 MISG      30.09S
$$

WVZ006-250900-
Western West Virginia

CITY           SKY/WX    TMP DP  RH WIND       PRES   REMARKS
HUNTINGTON     PTCLDY    60  59  96 CALM      30.05R
$$

WVZ015-250900-
West Central West Virginia

CITY           SKY/WX    TMP DP  RH WIND       PRES   REMARKS
CHARLESTON     FOG       62  62 100 CALM      30.06R VSB 1
$$

WVZ031-250900-
North Central West Virginia

CITY           SKY/WX    TMP DP  RH WIND       PRES   REMARKS
CLARKSBURG     PTCLDY    58  54  86 CALM      30.07S
MORGANTOWN     CLEAR     58  53  84 CALM      30.08S
$$

WVZ035-042-045-250900-
South Central West Virginia

CITY           SKY/WX    TMP DP  RH WIND       PRES   REMARKS
BECKLEY        FOG       59  57  93 W3        30.10R VSB 3/4
BLUEFIELD      CLEAR     60  55  83 CALM      30.10F HAZE
LEWISBURG      CLOUDY    62  59  89 CALM      30.09S
$$

WVZ047-250900-
Northern Mountains of West Virginia

CITY           SKY/WX    TMP DP  RH WIND       PRES   REMARKS
ELKINS         FOG       58  56  93 CALM      30.09S VSB 1/4
$$

WVZ052-250900-
Eastern Panhandle of West Virginia

CITY           SKY/WX    TMP DP  RH WIND       PRES   REMARKS
MARTINSBURG    CLEAR     57  53  86 CALM      30.03R
PETERSBURG     CLEAR     54  51  89 CALM      30.07R FOG
$$



USA.gov is the U.S. government's official web portal to all federal, state and local government web resources and services.